| time (UTC) | temp F | wind direction | speed knots | gust knots | rain 1hr in | rain 24hr in | rain mn in | humidity % | barometer mb |
| 20260502231526 | 58 | 184 | 0.9 | 2.6 | 0.00 | 0.00 | 0.00 | 57 | 1022.0 |
| 20260502230029 | 59 | 22 | 0.0 | 2.6 | 0.00 | 0.00 | 0.00 | 56 | 1022.0 |
| 20260502224523 | 59 | 189 | 0.9 | 3.5 | 0.00 | 0.00 | 0.00 | 55 | 1022.0 |
| 20260502223019 | 60 | 211 | 0.9 | 3.5 | 0.00 | 0.00 | 0.00 | 53 | 1022.0 |
| 20260502221516 | 62 | 105 | 2.6 | 6.1 | 0.00 | 0.00 | 0.00 | 50 | 1022.0 |
| 20260502220013 | 61 | 216 | 0.9 | 2.6 | 0.00 | 0.00 | 0.00 | 51 | 1022.0 |
| 20260502214513 | 62 | 218 | 2.6 | 4.3 | 0.00 | 0.00 | 0.00 | 49 | 1021.9 |
| 20260502213012 | 62 | 202 | 1.7 | 4.3 | 0.00 | 0.00 | 0.00 | 48 | 1021.8 |
| 20260502211512 | 63 | 229 | 1.7 | 3.5 | 0.00 | 0.00 | 0.00 | 46 | 1021.7 |
| 20260502210011 | 65 | 207 | 0.9 | 10.4 | 0.00 | 0.00 | 0.00 | 44 | 1021.7 |
| 20260502204511 | 65 | 87 | 4.3 | 10.4 | 0.00 | 0.00 | 0.00 | 43 | 1021.6 |
| 20260502203010 | 65 | 120 | 2.6 | 7.8 | 0.00 | 0.00 | 0.00 | 42 | 1021.5 |
| 20260502201510 | 66 | 166 | 1.7 | 7.8 | 0.00 | 0.00 | 0.00 | 40 | 1021.4 |
| 20260502200009 | 69 | 167 | 5.2 | 12.2 | 0.00 | 0.00 | 0.00 | 35 | 1021.4 |
| 20260502194509 | 69 | 189 | 7.0 | 13.9 | 0.00 | 0.00 | 0.00 | 35 | 1021.2 |
| 20260502193008 | 69 | 196 | 8.7 | 14.8 | 0.00 | 0.00 | 0.00 | 34 | 1020.9 |
| 20260502191507 | 69 | 224 | 8.7 | 14.8 | 0.00 | 0.00 | 0.00 | 34 | 1020.7 |
| 20260502190012 | 69 | 140 | 7.0 | 16.5 | 0.00 | 0.00 | 0.00 | 34 | 1020.5 |
| 20260502184518 | 70 | 182 | 8.7 | 18.2 | 0.00 | 0.00 | 0.00 | 34 | 1020.4 |
| 20260502183014 | 70 | 196 | 8.7 | 18.2 | 0.00 | 0.00 | 0.00 | 34 | 1020.1 |
| 20260502181505 | 70 | 208 | 7.0 | 20.9 | 0.00 | 0.00 | 0.00 | 34 | 1019.9 |
| 20260502163105 | 71 | 184 | 7.0 | 15.6 | 0.00 | 0.00 | 0.00 | 34 | 1019.5 |
| 20260502161623 | 72 | 145 | 7.0 | 17.4 | 0.00 | 0.00 | 0.00 | 34 | 1019.6 |
| 20260502151604 | 74 | 200 | 8.7 | 16.5 | 0.00 | 0.00 | 0.00 | 32 | 1020.0 |
| 20260502123034 | 76 | 216 | 4.3 | 9.6 | 0.00 | 0.00 | 0.00 | 30 | 1022.3 |
| 20260502121525 | 75 | 194 | 7.0 | 11.3 | 0.00 | 0.00 | 0.00 | 31 | 1022.7 |
| 20260502114520 | 74 | 123 | 8.7 | 12.2 | 0.00 | 0.00 | 0.00 | 31 | 1023.2 |
| 20260502113016 | 73 | 180 | 4.3 | 8.7 | 0.00 | 0.00 | 0.00 | 34 | 1023.4 |
| 20260502111518 | 72 | 286 | 0.0 | 3.5 | 0.00 | 0.00 | 0.00 | 39 | 1023.8 |
| 20260502110013 | 70 | 221 | 2.6 | 7.8 | 0.00 | 0.00 | 0.00 | 41 | 1024.2 |
| 20260502104504 | 68 | 281 | 2.6 | 6.1 | 0.00 | 0.00 | 0.00 | 43 | 1024.7 |
| 20260502103103 | 67 | 196 | 1.7 | 6.1 | 0.00 | 0.00 | 0.00 | 45 | 1025.0 |
| 20260502101557 | 67 | 267 | 2.6 | 7.0 | 0.00 | 0.00 | 0.00 | 45 | 1025.3 |
| 20260502071520 | 55 | 338 | 2.6 | 4.3 | 0.00 | 0.00 | 0.00 | 64 | 1028.3 |
| 20260502070019 | 54 | 336 | 1.7 | 5.2 | 0.00 | 0.00 | 0.00 | 65 | 1028.5 |
| 20260502064519 | 53 | 28 | 1.7 | 4.3 | 0.00 | 0.00 | 0.00 | 68 | 1028.6 |
| 20260502063026 | 52 | 333 | 2.6 | 4.3 | 0.00 | 0.00 | 0.00 | 72 | 1028.6 |
| 20260502061518 | 51 | 329 | 3.5 | 5.2 | 0.00 | 0.00 | 0.00 | 73 | 1028.8 |
| 20260502060017 | 50 | 348 | 2.6 | 4.3 | 0.00 | 0.00 | 0.00 | 76 | 1029.0 |
| 20260502054517 | 49 | 331 | 0.9 | 2.6 | 0.00 | 0.00 | 0.00 | 78 | 1029.1 |
| 20260502053015 | 47 | 339 | 0.9 | 1.7 | 0.00 | 0.00 | 0.00 | 79 | 1029.1 |
| 20260502051514 | 46 | 339 | 0.0 | 0.0 | 0.00 | 0.00 | 0.00 | 80 | 1029.1 |
| 20260502050014 | 46 | 339 | 0.0 | 0.0 | 0.00 | 0.00 | 0.00 | 80 | 1029.0 |
| 20260502044512 | 45 | 339 | 0.0 | 0.0 | 0.00 | 0.00 | 0.00 | 79 | 1029.0 |
| 20260502043011 | 46 | 339 | 0.0 | 0.0 | 0.00 | 0.00 | 0.00 | 79 | 1028.9 |
| 20260502041510 | 46 | 339 | 0.0 | 0.0 | 0.00 | 0.00 | 0.00 | 79 | 1028.8 |
| 20260502040007 | 46 | 342 | 0.0 | 0.9 | 0.00 | 0.00 | 0.00 | 78 | 1028.7 |
| 20260502034508 | 46 | 342 | 0.0 | 0.0 | 0.00 | 0.00 | 0.00 | 77 | 1028.5 |
| 20260502033003 | 47 | 342 | 0.0 | 0.0 | 0.00 | 0.00 | 0.00 | 76 | 1028.5 |
| 20260502031502 | 47 | 341 | 0.0 | 0.0 | 0.00 | 0.00 | 0.00 | 77 | 1028.3 |
| 20260502030000 | 46 | 340 | 0.0 | 0.0 | 0.00 | 0.00 | 0.00 | 76 | 1028.4 |
| 20260502024559 | 47 | 340 | 0.0 | 0.0 | 0.00 | 0.00 | 0.00 | 76 | 1028.3 |
| 20260502023059 | 47 | 340 | 0.9 | 1.7 | 0.00 | 0.00 | 0.00 | 76 | 1028.3 |
| 20260502021557 | 47 | 350 | 0.0 | 0.0 | 0.00 | 0.00 | 0.00 | 75 | 1028.3 |
| 20260502020059 | 48 | 350 | 0.0 | 1.7 | 0.00 | 0.00 | 0.00 | 74 | 1028.2 |
| 20260502014553 | 48 | 355 | 0.0 | 0.0 | 0.00 | 0.00 | 0.00 | 72 | 1028.2 |
| 20260502013050 | 49 | 355 | 0.9 | 2.6 | 0.00 | 0.00 | 0.00 | 72 | 1028.1 |
| 20260502011550 | 50 | 325 | 1.7 | 3.5 | 0.00 | 0.00 | 0.00 | 69 | 1028.1 |
| 20260502010044 | 50 | 5 | 0.9 | 2.6 | 0.00 | 0.00 | 0.00 | 70 | 1028.1 |
| 20260502004542 | 50 | 355 | 0.0 | 2.6 | 0.00 | 0.00 | 0.00 | 69 | 1028.2 |
| 20260502003039 | 52 | 5 | 1.7 | 3.5 | 0.00 | 0.00 | 0.00 | 63 | 1028.1 |
| 20260502001541 | 52 | 180 | 1.7 | 5.2 | 0.00 | 0.00 | 0.00 | 63 | 1028.2 |
| 20260502000038 | 50 | 78 | 0.0 | 0.0 | 0.00 | 0.00 | 0.00 | 68 | 1028.2 |
| 20260501234535 | 51 | 298 | 0.0 | 2.6 | 0.00 | 0.00 | 0.00 | 66 | 1028.3 |
| 20260501233032 | 53 | 355 | 0.9 | 2.6 | 0.00 | 0.00 | 0.00 | 62 | 1028.1 |